Weather History for KJFK - January, 2014

Change the Weather History Date:

Monday, January 27, 2014

  Actual Average Record
Temperature  
Mean Temperature 34 °F 33 °F  
Max Temperature 45 °F 39 °F 65 °F (1974)
Min Temperature 22 °F 26 °F 2 °F (1994)
Degree Days  
Heating Degree Days 31 32  
Month to date heating degree days 957 875  
Since 1 July heating degree days 2599 2544  
Cooling Degree Days 0 0  
Month to date cooling degree days 0 0  
Year to date cooling degree days 0 0  
Moisture  
Dew Point 19 °F    
Average Humidity 54    
Maximum Humidity 82    
Minimum Humidity 25    
Precipitation  
Precipitation 0.00 in 0.09 in 1.41 in (1976)
Month to date precipitation 2.96 2.78  
Year to date precipitation 2.96 2.78  
Snow  
Snow 0.00 in 0.20 in 4.30 in (2011)
Month to date snowfall 16.0 5.3  
Since 1 July snowfall 22.9 10.2  
Snow Depth 4.00 in    
Sea Level Pressure  
Sea Level Pressure 29.80 in    
Wind  
Wind Speed 14 mph (West)    
Max Wind Speed 28 mph    
Max Gust Speed 35 mph    
Visibility 10 miles    
Events      
T = Trace of Precipitation, MM = Missing Value Source: NWS Daily Summary

Daily Weather History Graph

Daily Weather History Graph

Search for Another Location

Airport or City:

Trip Planner

Search our weather history database for the weather conditions in past years. The results will help you decide how hot, cold, wet, or windy it might be!

Date:

Astronomy

Jan. 27, 2014 Rise Set
Actual Time 7:09 AM EST 5:06 PM EST
Civil Twilight 6:40 AM EST 5:36 PM EST
Nautical Twilight 6:07 AM EST 6:09 PM EST
Astronomical Twilight 5:34 AM EST 6:41 PM EST
Moon 3:48 AM EST (1/27) 1:49 PM EST (1/27)
Length of Visible Light 10h 55m
Length of Day
9h 57m
Waning Crescent, 15% of the Moon is Illuminated
Jan 27
Waning Crescent
Jan 30
New
Feb 6
First Quarter
Feb 14
Full
Feb 22
Last Quarter

Hourly Weather History & Observations

Time (EST) Temp. Windchill Dew Point Humidity Pressure Visibility Wind Dir Wind Speed Gust Speed Precip Events Conditions
12:51 AM 36.0 °F 29.0 °F 30.0 °F 79% 29.78 in 10.0 mi SSW 9.2 mph - N/A   Overcast
1:51 AM 36.0 °F 28.5 °F 30.0 °F 79% 29.75 in 10.0 mi SSW 10.4 mph - N/A   Mostly Cloudy
2:51 AM 34.0 °F 31.0 °F 28.9 °F 82% 29.74 in 10.0 mi West 3.5 mph - N/A   Mostly Cloudy
3:51 AM 32.0 °F - 27.0 °F 82% 29.72 in 10.0 mi Calm Calm - N/A   Overcast
4:51 AM 34.0 °F 27.2 °F 28.0 °F 79% 29.67 in 10.0 mi SE 8.1 mph - N/A   Overcast
5:51 AM 37.9 °F 30.5 °F 30.9 °F 76% 29.67 in 10.0 mi South 11.5 mph - N/A   Overcast
6:51 AM 37.9 °F 28.9 °F 30.9 °F 76% 29.66 in 10.0 mi South 16.1 mph - N/A   Overcast
7:51 AM 37.9 °F 30.5 °F 32.0 °F 79% 29.65 in 10.0 mi SSW 11.5 mph - N/A   Overcast
8:51 AM 37.9 °F 30.5 °F 32.0 °F 79% 29.65 in 10.0 mi SSW 11.5 mph - N/A   Overcast
9:51 AM 39.0 °F 34.0 °F 34.0 °F 82% 29.65 in 10.0 mi South 6.9 mph - N/A   Mostly Cloudy
10:51 AM 39.0 °F 33.4 °F 30.9 °F 73% 29.66 in 10.0 mi SW 8.1 mph - N/A   Mostly Cloudy
11:51 AM 39.9 °F 32.9 °F 28.9 °F 65% 29.66 in 10.0 mi WSW 11.5 mph - N/A   Mostly Cloudy
12:51 PM 44.1 °F 36.5 °F 27.0 °F 51% 29.67 in 10.0 mi West 17.3 mph - N/A   Mostly Cloudy
1:51 PM 43.0 °F 33.5 °F 26.1 °F 51% 29.71 in 10.0 mi WNW 24.2 mph 31.1 mph N/A   Mostly Cloudy
2:51 PM 39.0 °F 29.0 °F 18.0 °F 43% 29.74 in 10.0 mi West 20.7 mph 27.6 mph N/A   Mostly Cloudy
3:51 PM 35.1 °F 23.8 °F 17.1 °F 48% 29.81 in 10.0 mi WNW 20.7 mph - N/A   Mostly Cloudy
4:51 PM 32.0 °F 20.1 °F 9.0 °F 38% 29.87 in 10.0 mi NW 19.6 mph - N/A   Mostly Cloudy
5:51 PM 28.9 °F 16.9 °F 3.0 °F 33% 29.90 in 10.0 mi NW 17.3 mph - N/A   Mostly Cloudy
6:51 PM 28.9 °F 16.1 °F -2.0 °F 26% 29.96 in 10.0 mi NW 19.6 mph 26.5 mph N/A   Mostly Cloudy
7:51 PM 28.0 °F 15.7 °F -0.9 °F 29% 29.98 in 10.0 mi NW 17.3 mph 23.0 mph N/A   Mostly Cloudy
8:51 PM 26.1 °F 12.3 °F -5.1 °F 26% 30.02 in 10.0 mi NNW 19.6 mph 28.8 mph N/A   Mostly Cloudy
9:51 PM 24.1 °F 10.1 °F -5.1 °F 28% 30.05 in 10.0 mi NW 18.4 mph - N/A   Scattered Clouds
10:51 PM 23.0 °F 7.6 °F -2.9 °F 32% 30.08 in 10.0 mi NNW 21.9 mph - N/A   Scattered Clouds
11:51 PM 21.9 °F 7.8 °F -2.9 °F 34% 30.10 in 10.0 mi NW 17.3 mph 25.3 mph N/A   Mostly Cloudy